Flag Weather past 2 weeks in Höxter, North Rhine-Westphalia, Germany

Now
35 °F

Overcast.


Feels Like: 33 °F
Forecast: 28 / 37 °F
Wind: 3 mph from East

Location: Bad Lippspringe

Current Time: Nov 28, 2014 at 11:19:06 PM

Latest Report: Nov 28, 2014 at 10:00 PM


Visibility: N/A

Pressure: 30.00 "Hg

Humidity: 83%

Dew point: 31 °F

Location of HöxterLocation

Historic Weather in Höxter — Graph

°F

Höxter temperature yesterday

Maximum temperature yesterday: 41 °F (at 3:00 PM)
Minimum temperature yesterday: 37 °F (at 8:00 AM)
Average temperature yesterday: 39 °F

Past Weeks' High & Low Weather Summary

 TemperatureHumidityPressure
High55 °F (Nov 23, 2:00 PM)100% (Nov 25, 6:00 AM)30.37 "Hg (Nov 25, 6:00 AM)
Low32 °F (Nov 25, 6:00 AM)65% (Nov 25, 2:00 PM)29.50 "Hg (Nov 16, 6:00 AM)
Average44 °F84%29.99 "Hg
* Reported Nov 13 10:00 PM — Nov 28 10:00 PM, Höxter, Weather by CustomWeather, © 2014

Note: Actual official high and low records may vary slightly from our data, if they occured in-between our weather recording intervals... More about our weather records

Advertising

Höxter weather history for previous 24 hours

 ConditionsComfort  
Time TempWeatherWind HumidityBarometerVisibility
10:00 PM
Nov 28
35 °FOvercast.3 mph83%30.00 "HgN/A
9:00 PM35 °FOvercast.2 mph83%29.99 "HgN/A
8:00 PM35 °FPassing clouds.6 mph83%29.98 "HgN/A
7:00 PM35 °FOvercast.3 mph83%29.97 "HgN/A
6:00 PM36 °FOvercast.2 mph83%29.97 "HgN/A
5:00 PM36 °FPassing clouds.5 mph80%29.96 "HgN/A
4:00 PM37 °FScattered clouds.3 mph80%29.93 "HgN/A
3:00 PM38 °FPassing clouds.7 mph77%29.92 "HgN/A
2:00 PM40 °FPassing clouds.5 mph75%29.91 "HgN/A
1:00 PM39 °FOvercast.3 mph78%29.92 "HgN/A
12:00 PM39 °FScattered clouds.3 mph79%29.91 "HgN/A
11:00 AM39 °FOvercast.5 mph81%29.91 "HgN/A
10:00 AM39 °FPassing clouds.5 mph81%29.91 "HgN/A
9:00 AM38 °FOvercast.5 mph85%29.90 "HgN/A
8:00 AM38 °FOvercast.2 mph86%29.89 "HgN/A
7:00 AM38 °FPassing clouds.5 mph85%29.87 "HgN/A
6:00 AM38 °FPassing clouds.5 mph85%29.85 "HgN/A
5:00 AM38 °FClear.5 mph83%29.86 "HgN/A
4:00 AM38 °FClear.5 mph83%29.85 "HgN/A
3:00 AM39 °FClear.3 mph82%29.85 "HgN/A
2:00 AM39 °FClear.6 mph81%29.83 "HgN/A
1:00 AM39 °FOvercast.5 mph82%29.84 "HgN/A
12:00 AM39 °FOvercast.3 mph82%29.84 "HgN/A
11:00 PM
Nov 27
40 °FDrizzle. Overcast.6 mph82%29.84 "HgN/A
Weather by CustomWeather, © 2014

See weather overviewHow to use our weather pages